Total_Precipitation_Accumulation
2.04 2.03 1.85 1.68 1.35 1.21 1.41 1.58 1.35 1.37 1.34 1.25 1.37 1.45 1.51 1.62 2.43 2.98 3.50 1.85 2.67 2.93 0.87 0.57 0.65 0.54 0.36 0.42 0.69 0.58 1.08 0.84 1.08 1.03 0.95 1.06 0.95 0.81 0.70 0.50 0.37 0.51 0.91 0.79 0.67 0.88 0.35 0.14 0.28 0.67 1.00 1.03 1.04 1.18
2.54 2.16 1.81 1.50 1.19 1.21 1.38 1.59 1.36 1.34 1.26 1.18 1.14 1.23 1.46 1.71 2.29 2.96 3.26 2.08 1.92 2.91 1.71 0.68 0.82 0.57 0.38 0.38 0.71 0.82 0.88 0.90 0.94 0.94 0.63 0.55 0.66 0.72 0.79 0.86 0.46 0.56 0.47 0.54 0.47 0.51 0.43 0.23 0.36 0.65 0.71 0.78 0.79 0.84
2.67 2.41 2.13 1.57 1.34 1.33 1.42 1.49 1.27 1.17 1.10 1.09 1.11 1.13 1.42 1.80 2.13 2.98 2.63 2.04 3.03 4.10 2.13 0.92 0.80 0.57 0.54 0.36 0.51 0.91 0.53 0.56 0.72 0.65 0.78 0.60 0.61 0.42 0.69 0.63 0.63 0.82 0.47 0.62 0.63 0.77 0.33 0.22 0.27 0.35 0.43 0.59 0.53 0.51
2.34 2.15 1.78 1.54 1.33 1.37 1.22 1.20 1.09 1.01 1.02 1.08 1.12 1.31 1.58 2.07 2.19 2.79 2.15 2.16 2.89 2.90 2.38 1.06 0.57 0.49 0.55 0.62 0.47 0.63 0.64 0.53 0.62 0.83 0.92 0.75 0.73 0.59 0.90 0.59 0.58 0.96 0.59 0.77 0.97 1.53 0.77 0.65 0.74 0.69 0.49 0.48 0.41 0.42
1.66 1.45 1.44 1.39 1.12 1.12 1.04 1.14 1.09 1.00 1.13 1.08 1.18 1.41 2.14 2.48 2.77 3.02 1.88 2.20 2.34 2.51 2.32 1.15 0.51 0.45 0.47 0.64 0.53 0.55 0.65 0.79 0.89 0.93 0.81 0.49 0.42 0.70 1.13 0.63 0.59 0.71 0.93 0.91 1.06 1.28 1.09 0.94 0.70 0.53 0.38 0.34 0.26 0.19
1.26 1.13 1.27 1.32 0.96 0.94 0.87 1.00 1.07 1.12 1.09 1.10 1.40 1.53 2.23 2.94 3.75 4.35 5.59 3.96 2.28 1.92 2.76 2.06 0.76 0.35 0.41 0.54 0.72 0.89 0.96 1.12 1.18 1.01 0.59 0.48 0.41 0.95 1.33 0.82 0.72 0.79 1.08 0.95 0.88 0.90 0.73 0.62 0.44 0.33 0.24 0.24 0.19 0.12
1.13 1.18 1.30 1.07 0.82 0.74 0.76 0.88 0.88 0.93 1.16 1.28 1.55 1.67 2.56 3.57 3.34 2.58 2.51 2.12 1.45 1.81 2.65 2.42 1.60 0.79 0.46 0.63 1.09 1.04 1.20 1.47 1.50 1.19 0.61 0.37 0.49 0.96 1.23 0.97 0.77 0.79 0.85 0.67 0.55 0.42 0.41 0.40 0.30 0.19 0.14 0.14 0.10 0.07
1.15 1.05 0.89 0.78 0.63 0.63 0.67 0.72 0.75 0.88 1.04 1.31 1.74 2.54 3.16 3.52 2.89 2.09 0.97 0.88 0.98 1.82 1.88 2.06 1.99 2.28 0.93 0.95 1.37 1.22 1.23 1.52 1.62 1.23 0.72 0.42 0.76 1.10 1.33 0.78 0.45 0.38 0.40 0.29 0.21 0.11 0.11 0.09 0.07 0.06 0.05 0.07 0.12 0.15
0.77 0.67 0.65 0.58 0.63 0.74 0.76 0.71 0.81 0.95 1.35 2.11 3.02 4.09 5.44 4.76 3.69 2.02 1.13 1.33 1.37 1.80 1.69 0.99 1.41 2.38 1.59 1.04 1.42 1.51 1.34 1.60 1.15 0.95 0.73 0.76 0.73 1.05 1.01 0.43 0.31 0.18 0.15 0.14 0.06 0.01 0.00 0.00 0.02 0.04 0.05 0.06 0.10 0.18
0.65 0.58 0.57 0.61 0.69 0.69 0.73 0.85 1.02 1.54 2.30 3.12 3.99 4.66 5.76 3.43 2.21 2.53 4.06 3.86 3.02 1.83 1.24 0.81 0.84 1.40 1.73 1.65 1.30 1.71 1.42 1.09 0.87 0.64 0.62 0.82 0.77 0.39 0.20 0.19 0.14 0.10 0.12 0.08 0.04 0.04 0.04 0.05 0.08 0.14 0.21 0.23 0.25 0.24
0.66 0.61 0.64 0.64 0.70 0.91 1.10 1.18 1.53 2.02 2.51 3.05 3.41 3.98 3.32 2.71 2.86 3.41 3.34 2.52 1.79 1.01 0.41 0.43 0.73 1.29 1.42 1.59 1.46 1.16 1.60 1.38 0.89 0.73 0.70 0.81 0.56 0.33 0.16 0.10 0.07 0.09 0.06 0.07 0.11 0.14 0.14 0.16 0.19 0.27 0.32 0.33 0.31 0.28
0.55 0.56 0.59 0.66 0.80 1.02 1.09 1.24 1.23 1.51 1.79 1.63 2.07 2.55 3.28 3.15 2.55 2.18 1.69 1.12 0.69 0.46 0.37 0.33 0.44 0.70 1.38 1.63 1.49 1.04 1.16 1.33 1.58 1.13 1.13 0.86 0.50 0.23 0.15 0.18 0.14 0.12 0.13 0.13 0.14 0.18 0.26 0.32 0.33 0.29 0.27 0.27 0.33 0.40
0.51 0.60 0.73 0.79 0.75 0.85 1.03 1.15 1.29 1.29 1.42 1.67 1.48 1.96 1.98 1.77 1.58 1.35 1.01 0.69 0.57 0.28 0.30 0.36 0.52 0.76 1.05 1.47 1.50 1.16 1.33 1.30 1.27 1.44 0.84 0.64 0.37 0.37 0.44 0.49 0.47 0.36 0.31 0.32 0.36 0.33 0.29 0.32 0.33 0.34 0.42 0.53 0.60 0.73
0.47 0.59 0.58 0.70 0.91 1.17 1.30 1.41 1.73 1.89 1.92 1.65 1.29 1.25 1.10 1.06 0.77 0.79 0.83 0.79 0.57 0.41 0.34 0.36 0.60 0.96 0.93 1.05 1.52 1.42 1.51 1.14 1.23 0.96 0.65 0.61 0.63 0.77 0.69 0.54 0.45 0.50 0.50 0.52 0.59 0.59 0.62 0.68 0.85 0.94 0.97 1.06 0.93 0.98
0.49 0.43 0.63 1.03 1.15 1.14 1.13 1.27 1.64 1.44 1.47 1.22 0.78 0.65 0.70 0.94 0.75 0.76 0.71 0.57 0.60 0.70 0.74 0.83 1.16 1.13 0.89 1.13 1.02 1.02 0.93 0.77 0.63 0.74 0.85 0.93 0.90 0.85 0.71 0.67 0.64 0.66 0.67 0.68 0.75 0.73 0.85 0.88 0.76 0.90 0.98 0.90 0.71 0.70
0.27 0.48 0.73 0.80 0.66 0.74 0.94 1.52 1.67 0.95 0.86 0.72 0.82 0.95 0.85 0.87 0.94 0.84 0.71 0.67 0.81 1.11 1.09 1.07 1.11 1.07 1.10 0.85 0.65 0.59 0.58 0.71 0.93 0.78 0.92 0.94 0.85 0.90 0.88 0.82 0.85 0.87 0.79 0.80 0.83 0.79 0.75 0.71 0.65 0.70 0.69 0.64 0.63 0.49
0.27 0.46 0.72 0.60 0.65 0.76 1.11 1.40 1.22 1.03 0.77 0.72 1.20 1.35 1.16 1.06 1.16 1.05 0.95 0.87 0.88 0.88 0.72 0.68 0.67 0.70 0.74 0.52 0.56 0.58 0.82 0.89 0.87 0.92 0.93 0.93 0.95 1.01 1.05 0.94 0.87 0.74 0.67 0.68 0.67 0.65 0.65 0.67 0.52 0.39 0.43 0.53 0.40 0.34
0.44 0.46 0.54 0.54 0.61 0.87 0.96 0.81 0.79 0.58 0.60 0.94 1.18 1.40 0.87 1.00 0.95 0.84 0.84 0.68 0.61 0.57 0.55 0.65 0.60 0.55 0.73 0.89 0.92 0.87 0.95 1.03 1.05 1.01 0.98 1.01 0.96 0.89 0.80 0.71 0.72 0.60 0.55 0.56 0.49 0.45 0.43 0.39 0.29 0.32 0.28 0.27 0.19 0.18
0.67 0.57 0.77 0.82 0.58 0.63 0.72 0.52 0.28 0.40 0.78 0.83 0.90 0.72 0.54 0.68 0.68 0.62 0.43 0.29 0.21 0.36 0.47 0.40 0.52 0.78 0.89 0.93 0.94 0.95 0.94 0.86 0.89 0.87 0.79 0.79 0.78 0.73 0.68 0.58 0.56 0.59 0.48 0.46 0.33 0.25 0.24 0.19 0.19 0.16 0.15 0.12 0.16 0.20
0.95 0.86 0.88 0.68 0.34 0.38 0.26 0.21 0.04 0.15 0.38 0.50 0.47 0.27 0.23 0.41 0.38 0.23 0.15 0.09 0.12 0.20 0.55 0.61 0.77 0.88 0.81 0.80 0.69 0.70 0.70 0.64 0.51 0.41 0.52 0.60 0.62 0.47 0.53 0.46 0.44 0.40 0.31 0.28 0.23 0.19 0.15 0.15 0.17 0.16 0.15 0.15 0.17 0.19
0.91 1.00 0.77 0.38 0.29 0.26 0.19 0.10 0.07 0.07 0.14 0.21 0.21 0.09 0.16 0.17 0.17 0.17 0.13 0.08 0.23 0.29 0.53 0.69 0.68 0.71 0.48 0.46 0.40 0.36 0.43 0.40 0.41 0.30 0.36 0.47 0.51 0.33 0.34 0.37 0.33 0.29 0.25 0.26 0.24 0.26 0.21 0.22 0.20 0.15 0.15 0.13 0.14 0.14
0.66 0.57 0.57 0.28 0.22 0.20 0.12 0.05 0.08 0.04 0.06 0.10 0.13 0.09 0.13 0.19 0.18 0.12 0.08 0.17 0.47 0.64 0.62 0.47 0.39 0.31 0.22 0.25 0.23 0.17 0.23 0.19 0.24 0.35 0.44 0.37 0.41 0.40 0.42 0.45 0.32 0.32 0.30 0.30 0.26 0.23 0.20 0.16 0.12 0.08 0.08 0.10 0.09 0.09
0.30 0.27 0.28 0.16 0.17 0.17 0.15 0.12 0.11 0.04 0.04 0.08 0.05 0.07 0.09 0.08 0.06 0.08 0.17 0.23 0.59 0.71 0.46 0.23 0.18 0.15 0.18 0.29 0.19 0.16 0.14 0.10 0.12 0.18 0.24 0.27 0.28 0.32 0.31 0.32 0.29 0.27 0.25 0.22 0.15 0.13 0.12 0.07 0.03 0.04 0.07 0.09 0.12 0.14
0.23 0.32 0.46 0.26 0.13 0.18 0.13 0.18 0.12 0.09 0.05 0.04 0.04 0.07 0.08 0.08 0.07 0.09 0.16 0.27 0.52 0.40 0.22 0.26 0.23 0.19 0.18 0.17 0.17 0.21 0.26 0.20 0.21 0.24 0.25 0.19 0.19 0.22 0.16 0.15 0.12 0.09 0.08 0.06 0.03 0.04 0.05 0.08 0.09 0.13 0.11 0.11 0.12 0.13
0.41 0.31 0.37 0.31 0.14 0.10 0.08 0.11 0.14 0.08 0.06 0.04 0.06 0.09 0.07 0.04 0.11 0.11 0.12 0.38 0.37 0.34 0.32 0.31 0.30 0.29 0.27 0.27 0.26 0.23 0.17 0.12 0.10 0.11 0.15 0.09 0.10 0.11 0.09 0.06 0.06 0.06 0.04 0.06 0.08 0.07 0.07 0.09 0.12 0.14 0.14 0.15 0.17 0.19
0.54 0.30 0.18 0.16 0.10 0.08 0.06 0.06 0.07 0.06 0.07 0.11 0.14 0.11 0.08 0.11 0.12 0.18 0.33 0.47 0.40 0.40 0.42 0.41 0.34 0.26 0.23 0.20 0.19 0.16 0.10 0.06 0.03 0.04 0.05 0.02 0.03 0.05 0.08 0.08 0.09 0.12 0.09 0.09 0.10 0.10 0.11 0.11 0.13 0.15 0.20 0.20 0.19 0.20
0.31 0.29 0.12 0.11 0.13 0.14 0.21 0.20 0.18 0.18 0.18 0.19 0.18 0.13 0.17 0.22 0.20 0.41 0.54 0.49 0.44 0.45 0.32 0.25 0.17 0.14 0.15 0.16 0.14 0.10 0.04 0.01 0.01 0.03 0.03 0.04 0.04 0.04 0.05 0.09 0.12 0.11 0.06 0.10 0.10 0.09 0.12 0.14 0.16 0.18 0.20 0.21 0.21 0.22
0.13 0.12 0.14 0.18 0.27 0.29 0.26 0.22 0.26 0.31 0.35 0.30 0.22 0.20 0.21 0.19 0.39 0.54 0.53 0.52 0.40 0.27 0.21 0.17 0.13 0.07 0.08 0.11 0.14 0.10 0.07 0.06 0.03 0.02 0.04 0.09 0.05 0.02 0.04 0.06 0.04 0.04 0.05 0.09 0.13 0.16 0.18 0.19 0.18 0.17 0.18 0.21 0.25 0.31
0.13 0.14 0.13 0.16 0.14 0.16 0.21 0.24 0.30 0.30 0.27 0.22 0.20 0.25 0.23 0.29 0.47 0.47 0.48 0.41 0.34 0.22 0.23 0.24 0.33 0.17 0.14 0.15 0.19 0.16 0.07 0.05 0.04 0.06 0.05 0.08 0.12 0.13 0.09 0.08 0.10 0.10 0.12 0.15 0.21 0.21 0.24 0.28 0.23 0.24 0.22 0.23 0.26 0.28
0.07 0.05 0.08 0.06 0.10 0.17 0.27 0.22 0.26 0.21 0.11 0.10 0.12 0.15 0.19 0.48 0.72 0.50 0.36 0.32 0.29 0.27 0.24 0.20 0.20 0.16 0.17 0.16 0.20 0.27 0.27 0.18 0.12 0.11 0.10 0.08 0.09 0.10 0.09 0.08 0.08 0.10 0.12 0.13 0.15 0.22 0.24 0.25 0.29 0.29 0.21 0.23 0.25 0.24
0.05 0.10 0.09 0.08 0.17 0.24 0.24 0.15 0.14 0.13 0.13 0.12 0.11 0.11 0.22 0.41 0.45 0.43 0.33 0.35 0.28 0.18 0.16 0.20 0.20 0.18 0.19 0.19 0.16 0.14 0.21 0.19 0.12 0.08 0.05 0.06 0.07 0.08 0.09 0.08 0.08 0.10 0.13 0.16 0.14 0.16 0.19 0.20 0.23 0.23 0.19 0.17 0.19 0.16
0.11 0.15 0.11 0.14 0.29 0.25 0.26 0.26 0.20 0.23 0.17 0.14 0.15 0.13 0.19 0.16 0.19 0.24 0.25 0.29 0.28 0.20 0.20 0.19 0.24 0.31 0.22 0.24 0.23 0.21 0.14 0.10 0.08 0.06 0.07 0.08 0.11 0.11 0.08 0.07 0.08 0.09 0.11 0.11 0.13 0.16 0.17 0.17 0.21 0.22 0.21 0.20 0.19 0.17
0.11 0.08 0.10 0.13 0.16 0.19 0.24 0.25 0.17 0.14 0.15 0.17 0.22 0.24 0.25 0.20 0.19 0.25 0.23 0.22 0.36 0.27 0.21 0.20 0.23 0.28 0.26 0.21 0.19 0.19 0.19 0.19 0.16 0.14 0.13 0.13 0.11 0.10 0.09 0.09 0.09 0.08 0.07 0.09 0.12 0.15 0.16 0.16 0.18 0.19 0.18 0.16 0.16 0.14